CZ-6A DEB

Satellite information

Favourite Embed

Satellite Type and Status

DEBRISIN ORBIT

Key statistics

Satellite CZ-6A DEB at a glance.

Uptime

1029

Days in orbit

Revolutions

≈ 14.3

Per day

Orbit

SSO

Sun Synchronous Orbit

Inclination

98.7

Latest

Satellite identification and parameters

Extended collection of information and parameters for CZ-6A DEB.

Object identification

Identified? True

Debris? True

Object name: CZ-6A DEB

International designator: 2022-151AGK

Object number (NORAD): 56659

Object ID (CCSDS): 56659

Country: PEOPLES REPUBLIC OF CHINA (PRC)

Current information (Y/N): Y

RCS size: SMALL

Orbital parameters

Period: 100.438 minutes

Inclination: 98.7429 deg

SMA: 7157.452 km

Apoapsis: 799.24 km

Periapsis: 759.394 km

RAAN: 269.1609 deg

Eccentricy: 0.00278357

Argument of periapsis: 96.9054 deg

Mean anomaly: 263.5298 deg

Mean motion: 14.33722423 rev/day

Mean motion (dot): 0.00008671 rev/day2

B* drag term: 0.003122207 1/REarth

Two-line elements (TLE)

Creation date: Sept. 3, 2025, 10:15 a.m.

Reference frame: TEME

Reference center: EARTH

Epoch: Sept. 3, 2025, 12:14 a.m. UTC

TLE line 0: 0 CZ-6A DEB

TLE line 1: 1 56659U 22151AGK 25246.01021028 .00008671 00000-0 31222-2 0 9999

TLE line 2: 2 56659 98.7429 269.1609 0027836 96.9054 263.5298 14.33722423126740

Live tracking on map

Real-time ground track for satellite CZ-6A DEB.

In-orbit conjunctions

A list of the most updated potential collisions computed for object CZ-6A DEB.

Target Orbit TCA Probability of collision Miss distance Type
IRIDIUM 16 LEO 2025-04-27 15:33:54 0.0001351963 262.0 (m) PAYLOAD
METEOR 1-5 DEB LEO 2025-04-19 10:36:51 0.0001346896 235.0 (m) DEBRIS

Associated space launch

Chinese satellite reported for atmospheric/ocean/environmental/spatial parameter research purposes, details TBD.

CZ-6A DEB was lifted into orbit during the mission ‘Long March 6A | Yunhai 3’, on board a Long March 6A space rocket.

The launch took place on Nov. 11, 2022, 10:52 p.m. from Launch Complex 9A.

For more information about the launch, click the button.

Launch to space Long March 6A | Yunhai 3
Long March 6A | Yunhai 3

Agency: N/A

Status: Launch Successful

Launch date: Nov. 11, 2022, 10:52 p.m. UTC

Rocket: Long March 6A

Launch pad: Launch Complex 9A

Location: Taiyuan Satellite Launch Center, People's Republic of China

...

Latest news about this satellite

There are no fresh news available about this satellite. Check back as we update our databases every day.


Newsletter sign-up

Weekly statistics, charts and insights to help you stay on top of the space industry.